Location: Unspecified
(35.6961°N, 0.0000°E)
Time: 23:58:09
(UTC+00:00)

Vanguard 2 Rocket - Pass Details

Date: 01 June 2019
Orbit: 555 x 3326 km, 32.9° (Epoch: 26 June)

Event Time Altitude Azimuth Distance (km) Brightness Sun altitude
Rises 00:31:19 0° 205° (SSW) 6,225 - -31.8°
Reaches altitude 10° 00:35:44 10° 196° (SSW) 5,545 - -31.6°
Exits shadow 00:47:20 32° 156° (SSE) 4,539 9.9 -31.1°
Maximum altitude 00:50:47 34° 139° (SE) 4,531 10.1 -31.0°
Drops below altitude 10° 01:07:13 10° 85° (E) 6,106 11.3 -30.0°
Sets 01:12:18 0° 77° (ENE) 6,914 11.8 -29.7°
